AEZ41ST LIEE-LIML

Flight info

Callsign AEZ41ST
Flight time 1h 16m
Altitude 32000
Route KOVAS Q125 UREXE T1 APSUX Q710 TINTO L12 ELB M729 IDON
Aircraft B737/M-V/N

Departure

Time 2026-05-09 05:42
Airport Cagliari Elmas Airport (LIEE)

Arrival

Time 2026-05-09 06:59
Airport Milano Linate Airport (LIML)
Time Latitude Longitude Altitude Speed Heading
2026-05-09 05:15 39.25240 9.05948 16 ft 0 kts 320°
2026-05-09 05:34 39.25236 9.05952 16 ft 2 kts 318°
2026-05-09 05:34 39.25223 9.05966 43 ft 2 kts 321°
2026-05-09 05:34 39.25210 9.05979 11 ft 2 kts 319°
2026-05-09 05:35 39.25206 9.05998 18 ft 2 kts 243°
2026-05-09 05:35 39.25214 9.06014 17 ft 1 kts 232°
2026-05-09 05:35 39.25215 9.06016 17 ft 0 kts 232°
2026-05-09 05:38 39.25213 9.06013 16 ft 2 kts 232°
2026-05-09 05:39 39.25196 9.05984 17 ft 7 kts 232°
2026-05-09 05:39 39.25136 9.05927 16 ft 15 kts 169°
2026-05-09 05:39 39.25037 9.06041 16 ft 21 kts 132°
2026-05-09 05:39 39.24931 9.06172 15 ft 21 kts 140°
2026-05-09 05:40 39.24817 9.06279 15 ft 20 kts 147°
2026-05-09 05:40 39.24700 9.06373 15 ft 19 kts 148°
2026-05-09 05:40 39.24587 9.06464 15 ft 19 kts 148°
2026-05-09 05:40 39.24478 9.06553 14 ft 18 kts 148°
2026-05-09 05:41 39.24361 9.06575 14 ft 18 kts 192°
2026-05-09 05:41 39.24254 9.06517 17 ft 17 kts 235°
2026-05-09 05:41 39.24268 9.06447 16 ft 0 kts 314°
2026-05-09 05:42 39.24424 9.06265 15 ft 68 kts 317°
2026-05-09 05:42 39.24956 9.05650 17 ft 134 kts 318°
2026-05-09 05:42 39.25754 9.04741 298 ft 160 kts 321°
2026-05-09 05:42 39.26601 9.03780 1014 ft 162 kts 320°
2026-05-09 05:43 39.27655 9.03212 1555 ft 176 kts
2026-05-09 05:43 39.28908 9.03396 2217 ft 189 kts
2026-05-09 05:43 39.30322 9.03578 2666 ft 214 kts
2026-05-09 05:43 39.31855 9.03737 3332 ft 228 kts
2026-05-09 05:44 39.33426 9.03888 4275 ft 227 kts
2026-05-09 05:44 39.35003 9.04007 5228 ft 226 kts
2026-05-09 05:44 39.36565 9.04107 6174 ft 227 kts
2026-05-09 05:44 39.38164 9.04198 6846 ft 239 kts 360°
2026-05-09 05:45 39.39825 9.04301 7740 ft 237 kts 358°
2026-05-09 05:45 39.41478 9.04408 8625 ft 239 kts 357°
2026-05-09 05:45 39.43150 9.04504 9470 ft 242 kts 356°
2026-05-09 05:45 39.44843 9.04611 10248 ft 246 kts 356°
2026-05-09 05:46 39.46576 9.04733 10948 ft 255 kts 358°
2026-05-09 05:46 39.48436 9.04946 11206 ft 283 kts 360°
2026-05-09 05:46 39.50495 9.05216 11432 ft 311 kts
2026-05-09 05:46 39.52731 9.05519 11731 ft 333 kts
2026-05-09 05:47 39.55068 9.05839 12396 ft 341 kts
2026-05-09 05:47 39.57444 9.06161 13242 ft 345 kts
2026-05-09 05:47 39.59845 9.06479 14072 ft 349 kts
2026-05-09 05:47 39.62275 9.06796 14840 ft 353 kts
2026-05-09 05:48 39.64738 9.07127 15649 ft 358 kts
2026-05-09 05:48 39.67207 9.07751 16470 ft 365 kts
2026-05-09 05:48 39.69681 9.08603 17260 ft 370 kts 12°
2026-05-09 05:48 39.72175 9.09512 18043 ft 375 kts 12°
2026-05-09 05:49 39.74681 9.10409 18734 ft 379 kts 11°
2026-05-09 05:49 39.77244 9.11297 19404 ft 384 kts 10°
2026-05-09 05:49 39.79847 9.12177 20073 ft 389 kts 10°
2026-05-09 05:49 39.82474 9.13054 20724 ft 394 kts
2026-05-09 05:50 39.85157 9.13950 21390 ft 399 kts 10°
2026-05-09 05:50 39.87823 9.15061 22031 ft 406 kts 15°
2026-05-09 05:50 39.90496 9.16371 22678 ft 412 kts 16°
2026-05-09 05:50 39.93191 9.17735 23309 ft 417 kts 16°
2026-05-09 05:51 39.95877 9.19103 23897 ft 422 kts 16°
2026-05-09 05:51 39.98625 9.20500 24454 ft 425 kts 16°
2026-05-09 05:51 40.01391 9.21897 25009 ft 427 kts 16°
2026-05-09 05:51 40.04177 9.23297 25535 ft 431 kts 15°
2026-05-09 05:52 40.06986 9.24704 26054 ft 434 kts 15°
2026-05-09 05:52 40.09822 9.26123 26576 ft 438 kts 15°
2026-05-09 05:52 40.12675 9.27552 27118 ft 440 kts 15°
2026-05-09 05:52 40.15528 9.28984 27837 ft 437 kts 15°
2026-05-09 05:53 40.18356 9.30406 28622 ft 434 kts 15°
2026-05-09 05:53 40.21169 9.31820 29308 ft 433 kts 14°
2026-05-09 05:53 40.23996 9.33240 29879 ft 435 kts 14°
2026-05-09 05:53 40.26818 9.34659 30466 ft 434 kts 14°
2026-05-09 05:54 40.29621 9.36071 31081 ft 431 kts 14°
2026-05-09 05:54 40.32425 9.37487 31572 ft 431 kts 14°
2026-05-09 05:54 40.35188 9.38880 32034 ft 430 kts 13°
2026-05-09 05:54 40.38004 9.40298 32053 ft 435 kts 13°
2026-05-09 05:55 40.43623 9.43146 32082 ft 431 kts 14°
2026-05-09 05:55 40.49218 9.45991 32088 ft 432 kts 14°
2026-05-09 05:56 40.54822 9.48846 32089 ft 431 kts 13°
2026-05-09 05:56 40.60422 9.51701 32086 ft 432 kts 13°
2026-05-09 05:57 40.65993 9.54547 32082 ft 432 kts 13°
2026-05-09 05:57 40.71591 9.57388 32075 ft 431 kts 13°
2026-05-09 05:58 40.77167 9.60286 32089 ft 430 kts 14°
2026-05-09 05:58 40.82731 9.63135 32067 ft 428 kts 13°
2026-05-09 05:59 40.88285 9.65988 32077 ft 431 kts 18°
2026-05-09 05:59 40.90810 9.68169 32079 ft 446 kts 37°
2026-05-09 05:59 40.92842 9.71329 32068 ft 458 kts 56°
2026-05-09 06:00 40.95356 9.79104 32070 ft 462 kts 67°
2026-05-09 06:00 40.97614 9.87082 32077 ft 463 kts 66°
2026-05-09 06:01 40.99929 9.95046 32069 ft 463 kts 66°
2026-05-09 06:01 41.02288 10.02977 32064 ft 462 kts 65°
2026-05-09 06:02 41.04653 10.10899 32072 ft 462 kts 65°
2026-05-09 06:02 41.07006 10.18807 32082 ft 461 kts 65°
2026-05-09 06:03 41.09336 10.26674 32079 ft 461 kts 65°
2026-05-09 06:03 41.11675 10.34598 32071 ft 461 kts 65°
2026-05-09 06:04 41.14009 10.42528 32074 ft 461 kts 65°
2026-05-09 06:04 41.16337 10.50460 32075 ft 461 kts 65°
2026-05-09 06:05 41.18847 10.58268 32070 ft 457 kts 56°
2026-05-09 06:05 41.22547 10.64991 32082 ft 449 kts 44°
2026-05-09 06:06 41.26504 10.71366 32074 ft 450 kts 44°
2026-05-09 06:06 41.30462 10.77843 32080 ft 451 kts 45°
2026-05-09 06:07 41.34391 10.84374 32078 ft 452 kts 45°
2026-05-09 06:07 41.38312 10.90919 32077 ft 452 kts 45°
2026-05-09 06:08 41.42231 10.97467 32075 ft 452 kts 45°
2026-05-09 06:08 41.44302 11.00572 32055 ft 441 kts 31°
2026-05-09 06:08 41.46829 11.02673 32095 ft 419 kts 13°
2026-05-09 06:09 41.49562 11.03673 32081 ft 399 kts 357°
2026-05-09 06:09 41.52294 11.03814 32076 ft 387 kts 346°
2026-05-09 06:09 41.54882 11.03181 32082 ft 372 kts 333°
2026-05-09 06:09 41.57308 11.02011 32085 ft 369 kts 329°
2026-05-09 06:10 41.62052 10.99436 32082 ft 371 kts 329°
2026-05-09 06:10 41.66860 10.96817 32085 ft 373 kts 329°
2026-05-09 06:11 41.71679 10.94241 32081 ft 373 kts 329°
2026-05-09 06:11 41.76492 10.91689 32089 ft 371 kts 329°
2026-05-09 06:12 41.81275 10.89153 32080 ft 369 kts 329°
2026-05-09 06:12 41.86038 10.86624 32079 ft 367 kts 329°
2026-05-09 06:13 41.90783 10.84099 32083 ft 366 kts 329°
2026-05-09 06:13 41.95515 10.81576 32087 ft 366 kts 329°
2026-05-09 06:14 42.00255 10.79045 32085 ft 367 kts 329°
2026-05-09 06:14 42.04970 10.76525 32088 ft 367 kts 329°
2026-05-09 06:15 42.09722 10.73978 32088 ft 368 kts 329°
2026-05-09 06:15 42.14476 10.71426 32090 ft 368 kts 329°
2026-05-09 06:16 42.19233 10.68868 32088 ft 368 kts 329°
2026-05-09 06:16 42.23975 10.66318 32083 ft 366 kts 329°
2026-05-09 06:17 42.28702 10.63766 32090 ft 366 kts 329°
2026-05-09 06:17 42.33427 10.61210 32086 ft 366 kts 329°
2026-05-09 06:18 42.37356 10.59083 32088 ft 366 kts 329°
2026-05-09 06:18 42.42083 10.56521 32088 ft 366 kts 329°
2026-05-09 06:19 42.46803 10.53958 32089 ft 366 kts 329°
2026-05-09 06:19 42.51492 10.51408 32089 ft 366 kts 329°
2026-05-09 06:20 42.56214 10.48835 32090 ft 365 kts 329°
2026-05-09 06:20 42.60906 10.46275 32089 ft 365 kts 329°
2026-05-09 06:21 42.65622 10.43697 32088 ft 365 kts 329°
2026-05-09 06:21 42.70332 10.41119 32089 ft 365 kts 329°
2026-05-09 06:22 42.74936 10.38311 32087 ft 358 kts 323°
2026-05-09 06:22 42.79285 10.35025 32101 ft 357 kts 322°
2026-05-09 06:23 42.83617 10.31712 32084 ft 357 kts 322°
2026-05-09 06:23 42.87941 10.28425 32088 ft 357 kts 322°
2026-05-09 06:24 42.92289 10.25130 32090 ft 358 kts 322°
2026-05-09 06:24 42.96643 10.21830 32089 ft 358 kts 322°
2026-05-09 06:25 43.00998 10.18525 32091 ft 358 kts 322°
2026-05-09 06:25 43.05349 10.15218 32089 ft 358 kts 322°
2026-05-09 06:26 43.09700 10.11905 32089 ft 357 kts 322°
2026-05-09 06:26 43.14049 10.08589 32086 ft 357 kts 322°
2026-05-09 06:27 43.18389 10.05277 32084 ft 357 kts 322°
2026-05-09 06:27 43.22703 10.01981 32087 ft 357 kts 322°
2026-05-09 06:28 43.27042 9.98660 32088 ft 357 kts 322°
2026-05-09 06:28 43.31381 9.95326 32093 ft 357 kts 322°
2026-05-09 06:29 43.35723 9.91981 32088 ft 358 kts 322°
2026-05-09 06:29 43.40016 9.88672 32076 ft 349 kts 322°
2026-05-09 06:30 43.44250 9.85390 32092 ft 349 kts 322°
2026-05-09 06:30 43.46378 9.83736 31791 ft 351 kts 322°
2026-05-09 06:30 43.48486 9.82101 31481 ft 347 kts 322°
2026-05-09 06:31 43.50577 9.80479 31140 ft 343 kts 322°
2026-05-09 06:31 43.52653 9.78866 30738 ft 341 kts 323°
2026-05-09 06:31 43.54693 9.77279 30381 ft 339 kts 323°
2026-05-09 06:31 43.56738 9.75690 29971 ft 337 kts 323°
2026-05-09 06:32 43.58777 9.74113 29536 ft 334 kts 323°
2026-05-09 06:32 43.60800 9.72551 29114 ft 331 kts 323°
2026-05-09 06:32 43.62797 9.71007 28707 ft 328 kts 323°
2026-05-09 06:33 43.66742 9.67950 27912 ft 322 kts 323°
2026-05-09 06:33 43.68693 9.66435 27514 ft 320 kts 323°
2026-05-09 06:33 43.70625 9.64932 27117 ft 317 kts 323°
2026-05-09 06:34 43.74428 9.61975 26347 ft 313 kts 323°
2026-05-09 06:34 43.76323 9.60500 25968 ft 311 kts 324°
2026-05-09 06:34 43.78205 9.59033 25557 ft 310 kts 324°
2026-05-09 06:34 43.80099 9.57551 25088 ft 312 kts 324°
2026-05-09 06:35 43.81987 9.56073 24678 ft 311 kts 324°
2026-05-09 06:35 43.83870 9.54598 24303 ft 310 kts 324°
2026-05-09 06:35 43.85746 9.53128 23917 ft 309 kts 324°
2026-05-09 06:35 43.87617 9.51660 23502 ft 309 kts 324°
2026-05-09 06:36 43.89462 9.50211 23069 ft 307 kts 324°
2026-05-09 06:36 43.91324 9.48750 22661 ft 306 kts 324°
2026-05-09 06:36 43.93167 9.47301 22266 ft 304 kts 324°
2026-05-09 06:36 43.94997 9.45863 21876 ft 302 kts 324°
2026-05-09 06:37 43.96822 9.44438 21496 ft 301 kts 327°
2026-05-09 06:37 43.98783 9.43356 21112 ft 305 kts 337°
2026-05-09 06:37 44.00891 9.42780 20679 ft 312 kts 348°
2026-05-09 06:37 44.03050 9.42524 20313 ft 311 kts 349°
2026-05-09 06:38 44.05212 9.42318 19933 ft 311 kts 350°
2026-05-09 06:38 44.07337 9.42123 19556 ft 310 kts 350°
2026-05-09 06:38 44.09484 9.41922 19190 ft 309 kts 350°
2026-05-09 06:38 44.11636 9.41714 18807 ft 308 kts 350°
2026-05-09 06:39 44.12161 9.41663 18716 ft 308 kts 350°
2026-05-09 06:39 44.14249 9.41454 18327 ft 309 kts 350°
2026-05-09 06:39 44.16391 9.41237 17906 ft 308 kts 351°
2026-05-09 06:39 44.18496 9.41021 17510 ft 306 kts 351°
2026-05-09 06:40 44.20643 9.40800 17118 ft 305 kts 351°
2026-05-09 06:40 44.22751 9.40582 16740 ft 303 kts 351°
2026-05-09 06:40 44.24822 9.40367 16369 ft 302 kts 352°
2026-05-09 06:40 44.26912 9.40149 16008 ft 301 kts 352°
2026-05-09 06:41 44.29002 9.39931 15630 ft 300 kts 352°
2026-05-09 06:41 44.31087 9.39713 15257 ft 300 kts 352°
2026-05-09 06:41 44.33165 9.39496 14883 ft 299 kts 352°
2026-05-09 06:41 44.35242 9.39278 14513 ft 299 kts 353°
2026-05-09 06:42 44.37313 9.39061 14140 ft 299 kts 353°
2026-05-09 06:42 44.39386 9.38844 13747 ft 298 kts 353°
2026-05-09 06:42 44.41454 9.38627 13332 ft 298 kts 354°
2026-05-09 06:42 44.43494 9.38413 12943 ft 296 kts 354°
2026-05-09 06:43 44.45548 9.38198 12559 ft 295 kts 354°
2026-05-09 06:43 44.47594 9.37983 12179 ft 295 kts 354°
2026-05-09 06:43 44.49637 9.37768 11790 ft 294 kts 354°
2026-05-09 06:43 44.51678 9.37554 11419 ft 293 kts 354°
2026-05-09 06:44 44.53710 9.37340 11044 ft 291 kts 354°
2026-05-09 06:44 44.55729 9.37127 10661 ft 290 kts 354°
2026-05-09 06:44 44.57741 9.36913 10306 ft 289 kts 354°
2026-05-09 06:44 44.59702 9.36707 10145 ft 281 kts 355°
2026-05-09 06:45 44.61635 9.36507 10078 ft 276 kts 354°
2026-05-09 06:45 44.63544 9.36311 10000 ft 274 kts 354°
2026-05-09 06:45 44.65448 9.36113 9943 ft 275 kts 355°
2026-05-09 06:45 44.67368 9.35915 9892 ft 278 kts 355°
2026-05-09 06:46 44.69306 9.35713 9811 ft 280 kts 355°
2026-05-09 06:46 44.71249 9.35511 9760 ft 280 kts 354°
2026-05-09 06:46 44.73193 9.35309 9693 ft 280 kts 355°
2026-05-09 06:46 44.75135 9.35108 9623 ft 280 kts 355°
2026-05-09 06:47 44.77071 9.34907 9564 ft 279 kts 355°
2026-05-09 06:47 44.79010 9.34707 9513 ft 279 kts 355°
2026-05-09 06:47 44.80943 9.34502 9455 ft 278 kts 354°
2026-05-09 06:47 44.82878 9.34299 9393 ft 278 kts 355°
2026-05-09 06:48 44.84806 9.34099 9338 ft 278 kts 355°
2026-05-09 06:48 44.86735 9.33898 9287 ft 278 kts 355°
2026-05-09 06:48 44.88672 9.33696 9161 ft 279 kts 355°
2026-05-09 06:48 44.90592 9.33497 9117 ft 275 kts 355°
2026-05-09 06:49 44.92480 9.33301 9105 ft 271 kts 355°
2026-05-09 06:49 44.94387 9.33098 8727 ft 279 kts 355°
2026-05-09 06:49 44.96320 9.32893 8356 ft 277 kts 355°
2026-05-09 06:49 44.98214 9.32692 8061 ft 275 kts 355°
2026-05-09 06:50 45.00146 9.32487 7740 ft 270 kts 355°
2026-05-09 06:50 45.01927 9.32297 7645 ft 252 kts 355°
2026-05-09 06:50 45.03575 9.32121 7485 ft 233 kts 355°
2026-05-09 06:50 45.05165 9.31952 7348 ft 216 kts 355°
2026-05-09 06:51 45.06613 9.31800 7145 ft 204 kts 355°
2026-05-09 06:51 45.08018 9.31650 6777 ft 202 kts 355°
2026-05-09 06:51 45.09378 9.31501 6400 ft 201 kts 355°
2026-05-09 06:51 45.10773 9.31349 5989 ft 201 kts 355°
2026-05-09 06:52 45.12172 9.31201 5696 ft 200 kts 355°
2026-05-09 06:52 45.13557 9.31058 5384 ft 199 kts 355°
2026-05-09 06:52 45.14934 9.30913 5108 ft 197 kts 355°
2026-05-09 06:52 45.16291 9.30767 4854 ft 194 kts 355°
2026-05-09 06:53 45.17616 9.30624 4630 ft 188 kts 356°
2026-05-09 06:53 45.18918 9.30484 4457 ft 188 kts 356°
2026-05-09 06:53 45.20211 9.30345 4282 ft 185 kts 355°
2026-05-09 06:53 45.21481 9.30208 4102 ft 182 kts 356°
2026-05-09 06:54 45.22728 9.30072 3928 ft 182 kts 356°
2026-05-09 06:54 45.23980 9.29935 3768 ft 178 kts 355°
2026-05-09 06:54 45.25187 9.29805 3575 ft 170 kts 356°
2026-05-09 06:54 45.26348 9.29678 3412 ft 165 kts 356°
2026-05-09 06:55 45.27486 9.29554 3261 ft 164 kts 356°
2026-05-09 06:55 45.28620 9.29432 3175 ft 161 kts 356°
2026-05-09 06:55 45.29755 9.29308 3013 ft 166 kts 355°
2026-05-09 06:55 45.30869 9.29187 2801 ft 156 kts 356°
2026-05-09 06:56 45.31931 9.29072 2611 ft 151 kts 355°
2026-05-09 06:56 45.32975 9.28958 2480 ft 150 kts 355°
2026-05-09 06:56 45.34025 9.28845 2222 ft 149 kts 355°
2026-05-09 06:56 45.35054 9.28733 2013 ft 147 kts 355°
2026-05-09 06:57 45.36076 9.28622 1823 ft 148 kts 355°
2026-05-09 06:57 45.37105 9.28511 1619 ft 148 kts 355°
2026-05-09 06:57 45.38139 9.28399 1421 ft 150 kts 355°
2026-05-09 06:57 45.39176 9.28286 1211 ft 148 kts 355°
2026-05-09 06:58 45.40182 9.28177 1010 ft 143 kts 355°
2026-05-09 06:58 45.41165 9.28070 836 ft 144 kts 355°
2026-05-09 06:58 45.42152 9.27964 629 ft 142 kts 355°
2026-05-09 06:58 45.43130 9.27858 468 ft 138 kts 356°
2026-05-09 06:59 45.44050 9.27757 360 ft 121 kts 352°
2026-05-09 06:59 45.44671 9.27688 358 ft 58 kts 355°
2026-05-09 06:59 45.44979 9.27655 358 ft 41 kts 355°
2026-05-09 06:59 45.45228 9.27638 358 ft 30 kts
2026-05-09 07:00 45.45414 9.27730 362 ft 28 kts 26°
2026-05-09 07:00 45.45496 9.27815 362 ft 13 kts
2026-05-09 07:00 45.45599 9.27815 358 ft 17 kts
2026-05-09 07:00 45.45732 9.27818 358 ft 21 kts
2026-05-09 07:01 45.45865 9.27821 358 ft 12 kts 360°
2026-05-09 07:01 45.45912 9.27893 364 ft 11 kts 57°
2026-05-09 07:01 45.45962 9.27905 358 ft 5 kts
2026-05-09 07:01 45.45976 9.27905 358 ft 0 kts